Location: Koussan�
(15.2012°N, 12.5548°W)
Time: 12:16:27
(UTC+00:00)

NOAA 12 - Pass Details

Date: 20 October 2020
Orbit: 796 x 815 km, 98.5° (Epoch: 26 November)

Event Time Altitude Azimuth Distance (km) Brightness Sun altitude
Rises 18:38:25 0° 167° (SSE) 3,292 7.3 -3.6°
Reaches altitude 10° 18:40:44 10° 167° (SSE) 2,365 6.5 -4.2°
Maximum altitude 18:45:58 89° 81° (E) 805 4.1 -5.4°
Drops below altitude 10° 18:51:14 10° 348° (NNW) 2,380 6.6 -6.7°
Sets 18:53:35 0° 348° (NNW) 3,314 7.3 -7.2°
